OBJECT F

Satellite information

Favourite Embed

Satellite Type and Status

UNKNOWNIN ORBIT

Key statistics

Satellite OBJECT F at a glance.

Uptime

24

Days in orbit

Revolutions

≈ 14.0

Per day

Orbit

LEO

Low Earth Orbit

Inclination

50.0

Latest

Satellite identification and parameters

Extended collection of information and parameters for OBJECT F.

Object identification

Identified? True

Debris? False

Object name: OBJECT F

International designator: 2025-187F

Object number (NORAD): 65310

Object ID (CCSDS): 65310

Country: PEOPLES REPUBLIC OF CHINA (PRC)

Current information (Y/N): Y

RCS size: LARGE

Orbital parameters

Period: 102.577 minutes

Inclination: 50.0113 deg

SMA: 7258.724 km

Apoapsis: 885.078 km

Periapsis: 876.101 km

RAAN: 117.6898 deg

Eccentricy: 0.00061834

Argument of periapsis: 353.4032 deg

Mean anomaly: 6.6791 deg

Mean motion: 14.03822903 rev/day

Mean motion (dot): -0.00000107 rev/day2

B* drag term: 0.000028296426 1/REarth

Two-line elements (TLE)

Creation date: Sept. 18, 2025, 3:57 a.m.

Reference frame: TEME

Reference center: EARTH

Epoch: Sept. 17, 2025, 6 p.m. UTC

TLE line 0: 0 OBJECT F

TLE line 1: 1 65310U 25187F 25260.75046179 -.00000107 00000-0 28296-4 0 9992

TLE line 2: 2 65310 50.0113 117.6898 0006183 353.4032 6.6791 14.03822903 3234

Live tracking on map

Real-time ground track for satellite OBJECT F.

In-orbit conjunctions

There are no conjunctions computed for OBJECT F, at the moment. Check back to stay up to date, as we update our databases every day.

Go to all conjunctions

Associated space launch

A batch of 9 Low Earth Orbit communication satellites for the Chinese state owned SatNet constellation operated by the China Satellite Network Group. The constellation will eventually consists of 13000 satellites.

OBJECT F was lifted into orbit during the mission ‘Long March 8A | SatNet LEO Group 10’, on board a Long March 8A space rocket.

The launch took place on Aug. 25, 2025, 7:08 p.m. from Commercial LC-1.

For more information about the launch, click the button.

Launch to space Long March 8A | SatNet LEO Group 10
Long March 8A | SatNet LEO Group 10

Agency: N/A

Status: Launch Successful

Launch date: Aug. 25, 2025, 7:08 p.m. UTC

Rocket: Long March 8A

Launch pad: Commercial LC-1

Location: Wenchang Space Launch Site, People's Republic of China

...

Latest news about this satellite

News about space launch
Launch Roundup: Starship, NS-35, and Falcon 9 launches planned

Eight launches are scheduled this week by SpaceX, Blue Origin, and CSNA. CSNA will kick… The post Launch Roundup: Starship, NS-35, and Falcon 9 launches planned appeared first on NASASpaceFlight.com.

News about space launch
Launch Roundup: SpaceX, Chinese, and Russian missions make up busy week

A Chinese rocket, a pair of Russian missions, a trio of Falcon 9 launches, and… The post Launch Roundup: SpaceX, Chinese, and Russian missions make up busy week appeared first on NASASpaceFlight.com.


Newsletter sign-up

Weekly statistics, charts and insights to help you stay on top of the space industry.